Regional Weather Roundup
Issued by NWS

Home | Current Version | Previous Version | Graphics & Text | Print | Product List | Glossary On
Versions: 1 2 3 4 5 6 7 8 9 10 11 12 13 14 15 16 17 18 19 20 21 22 23 24 25 26 27 28 29 30 31 32 33 34 35 36 37 38 39 40 41 42 43 44 45 46 47 48 49 50
000
ASUS43 KLMK 231810
RWRKY
NATIONAL WEATHER SERVICE LOUISVILLE KY
100 PM EST THU NOV 23 2017

NOTE "FAIR" INDICATES FEW OR NO CLOUDS BELOW 12,000 FEET
WITH NO SIGNIFICANT WEATHER AND/OR OBSTRUCTIONS TO VISIBILITY.

KYZ001>023-026-027-061>063-070>075-231900-
WESTERN AND SOUTH CENTRAL KENTUCKY

CITY           SKY/WX    TMP DP  RH WIND       PRES   REMARKS
PADUCAH        SUNNY     48  21  34 CALM      30.10F
HENDERSON      SUNNY     45  24  43 S6        30.10F
OWENSBORO      SUNNY     46  28  49 SW6       30.10F
HOPKINSVILLE   SUNNY     47  23  40 CALM      30.09F HAZE
BOWLING GREEN  SUNNY     47  26  44 CALM      30.11F
GLASGOW        SUNNY     48  26  43 CALM      30.09F
$$

KYZ024-025-028>034-038-045-046-053-231900-
NORTH CENTRAL KENTUCKY

CITY           SKY/WX    TMP DP  RH WIND       PRES   REMARKS
LOUISVILLE/SDF MOSUNNY   45  25  45 CALM      30.09F
LOUISVILLE/LOU SUNNY     44  26  49 CALM      30.10F
FORT KNOX      SUNNY     46  25  42 CALM      30.06F
$$

KYZ035>037-039>044-047>052-055>060-089>105-231900-
NORTHEAST KENTUCKY

CITY           SKY/WX    TMP DP  RH WIND       PRES   REMARKS
LEXINGTON      SUNNY     44  25  47 CALM      30.09F
COVINGTON      PTSUNNY   42  29  59 S6        30.08F
FRANKFORT      SUNNY     43  23  45 CALM      30.08F
$$

KYZ054-064>069-076>088-106>120-231900-
SOUTHEAST KENTUCKY

CITY           SKY/WX    TMP DP  RH WIND       PRES   REMARKS
JACKSON        SUNNY     45  25  45 CALM      30.06F
LONDON         SUNNY     45  23  42 VRB3      30.07F
SOMERSET       SUNNY     45  27  49 CALM      30.09F
MIDDLESBORO    SUNNY     49  26  41 CALM      30.07F
MONTICELLO     CLEAR     48  28  46 VRB3      30.09F
$$




USA.gov is the U.S. government's official web portal to all federal, state and local government web resources and services.